Grayling, MI

11:59 AM EST on February 06, 2016 (GMT -0500)
Grayling

Weather History for KGOV - December, 2013

Change the Weather History Date:

Monday, December 23, 2013

  Actual Average (KHTL) Record (KHTL)
Temperature  
Mean Temperature 8 °F 22 °F  
Max Temperature 16 °F 29 °F 57 °F (2015)
Min Temperature 0 °F 15 °F -15 °F (1945)
Degree Days  
Heating Degree Days 57 43  
Month to date heating degree days 919  
Since 1 July heating degree days 2802  
Moisture  
Dew Point 7 °F    
Average Humidity 83    
Maximum Humidity 92    
Minimum Humidity 68    
Precipitation  
Precipitation 0.00 in 0.05 in 1.17 in (1952)
Month to date precipitation 1.27  
Year to date precipitation 28.37  
Snow  
Snow 0.00 in 0.60 in 5.00 in (1968)
Month to date snowfall 11.8  
Since 1 July snowfall 20.9  
Snow Depth -    
Sea Level Pressure  
Sea Level Pressure 30.15 in    
Wind  
Wind Speed 3 mph (NNW)    
Max Wind Speed 13 mph    
Max Gust Speed 18 mph    
Visibility 6 miles    
Events Snow    
T = Trace of Precipitation, MM = Missing Value Source: NWS Daily Summary

Daily Weather History Graph

Daily Weather History Graph

Search for Another Location

Airport or City:

Trip Planner

Search our weather history database for the weather conditions in past years. The results will help you decide how hot, cold, wet, or windy it might be!

Date:

Astronomy

Dec. 23, 2013 Rise Set
Actual Time 8:13 AM EST 5:02 PM EST
Civil Twilight 7:40 AM EST 5:36 PM EST
Nautical Twilight 7:03 AM EST 6:13 PM EST
Astronomical Twilight 6:27 AM EST 6:48 PM EST
Moon 11:26 PM EST (12/23) 11:25 AM EST (12/23)
Length of Visible Light 9h 55m
Length of Day
8h 48m
Waning Gibbous, 68% of the Moon is Illuminated
Dec 23
Waning Gibbous
Dec 25
Last Quarter
Jan 1
New
Jan 7
First Quarter
Jan 15
Full

Hourly Weather History & Observations

Time (EST) Temp. Windchill Dew Point Humidity Pressure Visibility Wind Dir Wind Speed Gust Speed Precip Events Conditions
12:15 AM 15.8 °F 7.2 °F 12.2 °F 86% 29.98 in 7.0 mi North 5.8 mph - N/A Snow Light Snow
12:35 AM 15.6 °F 10.0 °F 12.2 °F 86% 29.98 in 5.0 mi North 3.5 mph - N/A Snow Light Snow
12:55 AM 15.4 °F 9.8 °F 12.2 °F 87% 29.99 in 4.0 mi North 3.5 mph - N/A Snow Light Snow
1:15 AM 15.4 °F - 12.6 °F 88% 30.00 in 2.5 mi Calm Calm - N/A Snow Light Snow
1:35 AM 15.4 °F - 12.7 °F 89% 30.00 in 5.0 mi Calm Calm - N/A Snow Light Snow
1:55 AM 15.4 °F - 12.6 °F 88% 30.00 in 3.0 mi Calm Calm - N/A Snow Light Snow
2:15 AM 15.4 °F 9.8 °F 12.6 °F 88% 30.00 in 5.0 mi North 3.5 mph - N/A Snow Light Snow
2:35 AM 15.4 °F - 12.7 °F 89% 30.01 in 2.5 mi Calm Calm - N/A Snow Light Snow
2:55 AM 15.4 °F - 12.9 °F 90% 30.02 in 3.0 mi Calm Calm - N/A Snow Light Snow
3:15 AM 15.4 °F 9.8 °F 12.7 °F 89% 30.03 in 4.0 mi North 3.5 mph - N/A Snow Light Snow
3:35 AM 14.9 °F 9.2 °F 12.2 °F 89% 30.04 in 3.0 mi North 3.5 mph - N/A Snow Light Snow
3:55 AM 14.0 °F - 11.3 °F 89% 30.04 in 2.5 mi Calm Calm - N/A Snow Light Snow
4:15 AM 14.0 °F - 11.7 °F 90% 30.04 in 3.0 mi Calm Calm - N/A Snow Light Snow
4:35 AM 14.0 °F - 11.1 °F 88% 30.04 in 2.5 mi Calm Calm - N/A Snow Light Snow
4:55 AM 13.5 °F - 10.4 °F 88% 30.04 in 3.0 mi Calm Calm - N/A Snow Light Snow
5:15 AM 12.9 °F - 9.9 °F 88% 30.05 in 1.8 mi Calm Calm - N/A Snow Light Snow
5:35 AM 13.1 °F 7.1 °F 10.2 °F 88% 30.06 in 1.5 mi NW 3.5 mph - N/A Snow Light Snow
5:55 AM 12.9 °F - 10.4 °F 90% 30.06 in 2.0 mi Calm Calm - N/A Snow Light Snow
6:15 AM 12.9 °F 5.2 °F 9.7 °F 87% 30.07 in 1.0 mi NW 4.6 mph - N/A Snow Snow
6:35 AM 10.4 °F 2.2 °F 7.5 °F 88% 30.07 in 1.0 mi NW 4.6 mph - N/A Snow Light Snow
6:55 AM 10.2 °F 3.8 °F 7.5 °F 89% 30.08 in 1.5 mi NNW 3.5 mph - N/A Snow Light Snow
7:15 AM 10.4 °F - 7.7 °F 89% 30.08 in 1.5 mi Calm Calm - N/A Snow Light Snow
7:35 AM 9.3 °F - 6.3 °F 87% 30.10 in 3.0 mi Calm Calm - N/A Snow Light Snow
7:55 AM 7.7 °F - 5.7 °F 92% 30.11 in 2.5 mi Calm Calm - N/A Snow Light Snow
8:15 AM 7.7 °F - 5.9 °F 92% 30.11 in 2.0 mi Calm Calm - N/A Snow Light Snow
8:35 AM 3.7 °F - 1.0 °F 89% 30.13 in 1.0 mi Calm Calm - N/A Snow Light Snow
8:55 AM 5.9 °F - 3.4 °F 89% 30.13 in 1.0 mi Calm Calm - N/A Snow Light Snow
9:15 AM 7.3 °F - 4.6 °F 89% 30.14 in 1.0 mi Calm Calm - N/A Snow Light Snow
9:35 AM 8.4 °F - 5.9 °F 89% 30.15 in 4.0 mi Calm Calm - N/A Snow Light Snow
9:55 AM 10.2 °F - 7.3 °F 88% 30.15 in 5.0 mi Calm Calm - N/A   Scattered Clouds
10:15 AM 9.9 °F - 6.3 °F 85% 30.16 in 5.0 mi Calm Calm - N/A   Clear
10:35 AM 9.7 °F - 6.3 °F 86% 30.16 in 10.0 mi Calm Calm - N/A   Clear
10:55 AM 10.2 °F 0.6 °F 6.6 °F 85% 30.17 in 10.0 mi NNW 5.8 mph - N/A   Scattered Clouds
11:15 AM 13.3 °F 3.0 °F 6.4 °F 74% 30.18 in 10.0 mi WNW 6.9 mph - N/A   Scattered Clouds
11:35 AM 14.2 °F 6.7 °F 6.4 °F 71% 30.17 in 10.0 mi NW 4.6 mph - N/A   Scattered Clouds
11:55 AM 15.4 °F 3.0 °F 6.8 °F 69% 30.17 in 10.0 mi WNW 10.4 mph - N/A Snow Light Snow
12:15 PM 15.4 °F 3.8 °F 7.3 °F 70% 30.17 in 10.0 mi NW 9.2 mph - N/A Snow Light Snow
12:35 PM 15.4 °F 1.6 °F 7.3 °F 70% 30.16 in 10.0 mi NW 12.7 mph - N/A   Mostly Cloudy
12:55 PM 15.6 °F 2.5 °F 7.0 °F 69% 30.17 in 10.0 mi NW 11.5 mph 18.4 mph N/A   Mostly Cloudy
1:15 PM 15.8 °F 4.2 °F 7.5 °F 70% 30.17 in 10.0 mi NW 9.2 mph - N/A   Overcast
1:35 PM 15.6 °F 4.9 °F 7.3 °F 70% 30.17 in 10.0 mi WNW 8.1 mph 16.1 mph N/A Snow Light Snow
1:55 PM 15.6 °F 5.9 °F 7.7 °F 71% 30.17 in 10.0 mi NNW 6.9 mph - N/A Snow Light Snow
2:15 PM 15.4 °F 8.1 °F 7.9 °F 72% 30.18 in 10.0 mi WNW 4.6 mph - N/A Snow Light Snow
2:35 PM 15.4 °F 5.6 °F 6.8 °F 69% 30.18 in 10.0 mi West 6.9 mph - N/A Snow Light Snow
2:55 PM 16.3 °F 4.1 °F 7.5 °F 68% 30.18 in 10.0 mi NW 10.4 mph - N/A Snow Light Snow
3:15 PM 15.4 °F 3.8 °F 6.8 °F 69% 30.18 in 10.0 mi NW 9.2 mph - N/A   Mostly Cloudy
3:35 PM 15.4 °F 9.8 °F 7.3 °F 70% 30.19 in 10.0 mi West 3.5 mph - N/A Snow Light Snow
3:55 PM 15.4 °F 4.6 °F 7.7 °F 71% 30.20 in 7.0 mi NNW 8.1 mph - N/A Snow Light Snow
4:15 PM 13.8 °F 3.7 °F 7.3 °F 75% 30.21 in 7.0 mi NNW 6.9 mph - N/A Snow Light Snow
4:35 PM 12.9 °F 0.7 °F 6.6 °F 76% 30.23 in 7.0 mi NNW 9.2 mph - N/A Snow Light Snow
4:55 PM 12.9 °F 3.8 °F 6.8 °F 77% 30.23 in 5.0 mi NNW 5.8 mph - N/A Snow Light Snow
5:15 PM 11.7 °F 3.7 °F 5.7 °F 77% 30.24 in 7.0 mi NNW 4.6 mph - N/A Snow Light Snow
5:35 PM 10.4 °F 2.2 °F 4.8 °F 78% 30.23 in 10.0 mi NW 4.6 mph - N/A Snow Light Snow
5:55 PM 8.6 °F 2.0 °F 4.1 °F 82% 30.24 in 10.0 mi North 3.5 mph - N/A   Overcast
6:15 PM 8.6 °F - 4.6 °F 84% 30.24 in 7.0 mi Calm Calm - N/A   Overcast
6:35 PM 6.8 °F - 2.8 °F 84% 30.26 in 10.0 mi Calm Calm - N/A Snow Light Snow
6:55 PM 7.7 °F - 5.2 °F 89% 30.26 in 10.0 mi Calm Calm - N/A   Overcast
7:16 PM 5.2 °F -1.9 °F 2.3 °F 88% 30.26 in 10.0 mi North 3.5 mph - N/A   Overcast
7:35 PM 0.9 °F - -2.7 °F 85% 30.26 in 7.0 mi Calm Calm - N/A   Overcast
7:55 PM 1.2 °F - -1.5 °F 88% 30.27 in 7.0 mi Calm Calm - N/A   Overcast
8:15 PM 2.1 °F -5.4 °F -0.8 °F 88% 30.27 in 10.0 mi North 3.5 mph - N/A   Overcast
8:35 PM 5.4 °F - 2.3 °F 87% 30.27 in 10.0 mi Calm Calm - N/A Snow Light Snow
8:55 PM 3.7 °F - 0.9 °F 88% 30.27 in 10.0 mi Calm Calm - N/A Snow Light Snow
9:15 PM 4.8 °F - 1.6 °F 86% 30.27 in 7.0 mi Calm Calm - N/A Snow Light Snow
9:35 PM 5.4 °F - 2.1 °F 86% 30.27 in 7.0 mi Calm Calm - N/A Snow Light Snow
9:55 PM 5.4 °F - 1.8 °F 85% 30.27 in 10.0 mi Calm Calm - N/A Snow Light Snow
10:15 PM 6.3 °F - 2.5 °F 84% 30.26 in 7.0 mi Calm Calm - N/A Snow Light Snow
10:35 PM 5.4 °F - 1.9 °F 86% 30.26 in 10.0 mi Calm Calm - N/A   Overcast
10:55 PM 5.4 °F - 1.2 °F 83% 30.26 in 7.0 mi Calm Calm - N/A Snow Light Snow
11:15 PM 5.4 °F - 1.6 °F 84% 30.26 in 7.0 mi Calm Calm - N/A Snow Light Snow
11:35 PM 5.4 °F - 1.8 °F 85% 30.26 in 10.0 mi Calm Calm - N/A   Overcast
11:55 PM 5.4 °F - 2.1 °F 86% 30.26 in 10.0 mi Calm Calm - N/A   Overcast